This is the latest recevied weather packets stored in our database for station/object KD4WXI. If no packets are shown the sender has not sent any weather packets the latest 10 day(s).
| Time | Temp. | Humidity | Pressure | Rain* | Wind** | Luminosity | Snow |
|---|---|---|---|---|---|---|---|
| 1777473318 | 16.67° C | 98% | 1013.4 hPa | 0 mm | - | 68 W/m² | - |
| 1777473014 | 16.67° C | 98% | 1013.6 hPa | 0 mm | - | 96 W/m² | - |
| 1777472710 | 16.67° C | 99% | 1013.5 hPa | 0 mm | - | 92 W/m² | - |
| 1777472407 | 16.67° C | 99% | 1013.4 hPa | 0 mm | - | 68 W/m² | - |
| 1777472105 | 16.67° C | 99% | 1013.2 hPa | 0 mm | - | 59 W/m² | - |
| 1777471800 | 16.11° C | 99% | 1013.2 hPa | 0 mm | - | 58 W/m² | - |
| 1777471496 | 16.11° C | 99% | 1013.3 hPa | 0 mm | - | 44 W/m² | - |
| 1777471193 | 16.11° C | 99% | 1013.1 hPa | 0 mm | - | 33 W/m² | - |
| 1777470890 | 16.11° C | 99% | 1013.3 hPa | 0 mm | - | 28 W/m² | - |
| 1777470587 | 16.11° C | 99% | 1013.5 hPa | 0 mm | - | 43 W/m² | - |
| 1777470283 | 16.11° C | 99% | 1013.4 hPa | 0 mm | - | 38 W/m² | - |
| 1777469979 | 16.11° C | 99% | 1013.3 hPa | 0 mm | - | 47 W/m² | - |
| 1777469675 | 15.56° C | 99% | 1013.7 hPa | 0 mm | - | 47 W/m² | - |
| 1777469371 | 15.56° C | 99% | 1013.8 hPa | 0 mm | - | 43 W/m² | - |
| 1777469067 | 15.56° C | 99% | 1013.9 hPa | 0 mm | - | 44 W/m² | - |
| 1777468762 | 15.56° C | 99% | 1014.1 hPa | 0 mm | - | 42 W/m² | - |
| 1777468458 | 15.56° C | 99% | 1014 hPa | 0 mm | - | 39 W/m² | - |
| 1777468155 | 15.56° C | 99% | 1014.5 hPa | 0 mm | - | 36 W/m² | - |
| 1777467851 | 15.56° C | 99% | 1014.5 hPa | 0 mm | - | 33 W/m² | - |
| 1777467547 | 15.56° C | 99% | 1014.3 hPa | 0 mm | - | 33 W/m² | - |
| 1777467241 | 15.56° C | 99% | 1014.7 hPa | 0 mm | - | 35 W/m² | - |
| 1777466938 | 15.56° C | 99% | 1014.6 hPa | 0 mm | - | 33 W/m² | - |
| 1777466636 | 15.56° C | 99% | 1014.8 hPa | 0 mm | - | 27 W/m² | - |
| 1777466333 | 15.56° C | 99% | 1014.6 hPa | 0 mm | - | 31 W/m² | - |
| 1777466029 | 15° C | 99% | 1014.3 hPa | 0 mm | - | 34 W/m² | - |
* Rain latest hour (hover to see other rain measurements)
** Current wind speed in m/s (hover to see current wind gust speed)